Regional Weather Roundup
Issued by NWS

Home | Current Version | Previous Version | Text Only | Print | Product List | Glossary Off
Versions: 1 2 3 4 5 6 7 8 9 10 11 12 13 14 15 16 17 18 19 20 21 22 23 24 25 26 27 28 29 30 31 32 33 34 35 36 37 38 39 40 41 42 43 44 45 46 47 48 49 50

000
ASUS43 KOAX 202002
RWRNE

WEATHER ROUNDUP FOR NEBRASKA
NATIONAL WEATHER SERVICE OMAHA NE
200 PM CST MON NOV 20 2017

NOTES: SATELLITE DATA IS BEING USED TO AUGMENT CLOUD COVER ABOVE
       12000 FEET.
       "FAIR" INDICATES FEW OR NO CLOUDS BELOW 12,000 FEET WITH NO
       SIGNIFICANT WEATHER AND/OR OBSTRUCTIONS TO VISIBILITY.


NEZ001>004-019>022-054>056-202100-
NEBRASKA PANHANDLE

CITY           SKY/WX    TMP DP  RH WIND       PRES   REMARKS
SCOTTSBLUFF    CLOUDY    62  13  14 W32G45    29.70S
ALLIANCE       CLOUDY    61  16  17 NW26G37   29.69R
CHADRON        CLOUDY    61  17  18 W23G32    29.67R
GORDON         FAIR      61  13  15 W22G39    29.66R
KIMBALL        CLOUDY    63  12  13 NW41G59   29.75F HAZE
SIDNEY         CLOUDY    66   8  10 W35G47    29.74F
$$

NEZ057>060-069>072-079>082-202100-
SOUTHWEST NEBRASKA

CITY           SKY/WX    TMP DP  RH WIND       PRES   REMARKS
NORTH PLATTE   SUNNY     66  17  15 W16       29.64F
IMPERIAL       CLOUDY    70   4   7 W25G32    29.70F
LEXINGTON      CLOUDY    68  19  15 W15G22    29.63F
MCCOOK         SUNNY     72  15  11 W17G25    29.65F
OGALLALA       CLOUDY    68  13  12 NW29G39   29.68R
$$

NEZ005>010-023>029-035>040-094-202100-
NORTH CENTRAL NEBRASKA

CITY           SKY/WX    TMP DP  RH WIND       PRES   REMARKS
VALENTINE      SUNNY     67  17  14 W17       29.57R
AINSWORTH      SUNNY     64  21  19 W15       29.57R
BROKEN BOW     CLOUDY    62  21  20 W14G25    29.60S
O`NEILL        CLOUDY    58  23  25 W10       29.54F
ORD            CLOUDY    64  16  15 W22G31    29.56F
THEDFORD       SUNNY     65  18  16 NW21G29   29.61S
$$

NEZ041-046>049-061>064-073>077-083>087-202100-
SOUTH CENTRAL NEBRASKA

CITY           SKY/WX    TMP DP  RH WIND       PRES   REMARKS
GRAND ISLAND   CLOUDY    62  26  25 SW14      29.61F
AURORA         CLOUDY    60  27  28 SW13      29.61S
HASTINGS       CLOUDY    62  22  21 SW9G22    29.63F
HEBRON         PTSUNNY   59  25  26 SW17G23   29.66F
HOLDREGE       CLOUDY    66  24  20 SW13G18   29.64F
KEARNEY        CLOUDY    64  21  19 W13       29.62F
$$

NEZ011>018-030>034-042>045-202100-
NORTHEAST NEBRASKA

CITY           SKY/WX    TMP DP  RH WIND       PRES   REMARKS
NORFOLK        CLOUDY    57  24  28 SW12      29.55F
ALBION         MOSUNNY   64  21  19 W10       29.56S
BLAIR          CLOUDY    56  28  33 S17       29.59F
COLUMBUS       CLOUDY    59  26  28 SW17      29.57F
FREMONT        CLOUDY    58  26  28 S13       29.60F
TEKAMAH        CLOUDY    59  26  28 S17       29.57F
WAYNE          CLOUDY    54  24  30 SW9       29.54F
$$

NEZ050>053-065>068-078-088>093-202100-
SOUTHEAST NEBRASKA

CITY           SKY/WX    TMP DP  RH WIND       PRES   REMARKS
LINCOLN        CLOUDY    58  25  28 SW15      29.63F
OMAHA EPPLEY   CLOUDY    58  25  28 S16G23    29.61F
BEATRICE       CLOUDY    58  26  29 SW18G28   29.66F
FALLS CITY     CLOUDY    62  25  24 SW18G31   29.67F
NEBRASKA CITY  CLOUDY    60  29  31 SW23G30   29.65F
PLATTSMOUTH    CLOUDY    58  28  32 SW20G25   29.63F
$$

NEZ044-045-051>053-067-202100-
OMAHA AREA

CITY           SKY/WX    TMP DP  RH WIND       PRES   REMARKS
OMAHA EPPLEY   CLOUDY    58  25  28 S16G23    29.61F
BLAIR          CLOUDY    56  28  33 S17       29.59F
FREMONT        CLOUDY    58  26  28 S13       29.60F
MILLARD        CLOUDY    59  28  30 S9G16     29.61F
OFFUTT AFB     CLOUDY    58  26  28 S14G21    29.61F
PLATTSMOUTH    CLOUDY    58  28  32 SW20G25   29.63F
WAHOO          FAIR      58  25  28 SW14G21   29.60F
$$



USA.gov is the U.S. government's official web portal to all federal, state and local government web resources and services.